This is the latest recevied weather packets stored in our database for station/object KC9GSD. If no packets are shown the sender has not sent any weather packets the latest 10 day(s).
| Time | Temp. | Humidity | Pressure | Rain* | Wind** | Luminosity | Snow |
|---|---|---|---|---|---|---|---|
| 1778365166 | 21.67° C | 71% | 1011.7 hPa | 0 mm | - | 142 W/m² | - |
| 1778364862 | 21.67° C | 69% | 1011.7 hPa | 0 mm | - | 156 W/m² | - |
| 1778364558 | 21.67° C | 67% | 1011.7 hPa | 0 mm | - | 164 W/m² | - |
| 1778364254 | 21.67° C | 66% | 1011.6 hPa | 0 mm | - | 140 W/m² | - |
| 1778363950 | 22.22° C | 71% | 1011.5 hPa | 0 mm | - | 202 W/m² | - |
| 1778363646 | 22.22° C | 69% | 1011.2 hPa | 0 mm | - | 175 W/m² | - |
| 1778363344 | 22.22° C | 67% | 1011.3 hPa | 0 mm | - | 188 W/m² | - |
| 1778363041 | 22.22° C | 68% | 1011.1 hPa | 0 mm | - | 253 W/m² | - |
| 1778362738 | 22.22° C | 72% | 1011.2 hPa | 0 mm | - | 229 W/m² | - |
| 1778362433 | 22.78° C | 67% | 1011.1 hPa | 0 mm | - | 312 W/m² | - |
| 1778362131 | 22.22° C | 68% | 1011.2 hPa | 0 mm | - | 384 W/m² | - |
| 1778361828 | 22.78° C | 70% | 1011 hPa | 0 mm | - | 310 W/m² | - |
| 1778361524 | 22.22° C | 68% | 1011 hPa | 0 mm | - | 295 W/m² | - |
| 1778361220 | 22.78° C | 71% | 1011.3 hPa | 0 mm | - | 301 W/m² | - |
| 1778360917 | 22.78° C | 72% | 1011 hPa | 0 mm | - | 234 W/m² | - |
| 1778360615 | 22.78° C | 66% | 1011.1 hPa | 0 mm | - | 271 W/m² | - |
| 1778360314 | 22.22° C | 67% | 1011.1 hPa | 0 mm | - | 330 W/m² | - |
| 1778360009 | 22.78° C | 66% | 1011.1 hPa | 0 mm | - | 297 W/m² | - |
| 1778359706 | 22.78° C | 66% | 1010.9 hPa | 0 mm | - | 350 W/m² | - |
| 1778359402 | 22.78° C | 66% | 1011.1 hPa | 0 mm | - | 319 W/m² | - |
| 1778359098 | 23.33° C | 67% | 1011.1 hPa | 0 mm | - | 335 W/m² | - |
| 1778358795 | 23.33° C | 68% | 1011.1 hPa | 0 mm | - | 584 W/m² | - |
| 1778358492 | 23.33° C | 68% | 1011.1 hPa | 0 mm | - | 349 W/m² | - |
| 1778358188 | 22.78° C | 67% | 1011.3 hPa | 0 mm | - | 521 W/m² | - |
| 1778357887 | 23.33° C | 67% | 1011.4 hPa | 0 mm | - | 246 W/m² | - |
* Rain latest hour (hover to see other rain measurements)
** Current wind speed in m/s (hover to see current wind gust speed)